owner,sensor,date,latitude,longitude,vertical_datum,wind_speed,wind_to_direction,wind_speed_of_gust,qcFlag 
TCOON,ioos:station:TCOON:006:1,2009-09-01T00:00:00Z,27.8217,-97.2040,0.0,1.7,103.0,2.9,'11111222,11111222,11111222' 
TCOON,ioos:station:TCOON:006:1,2009-09-01T02:00:00Z,27.8217,-97.2040,0.0,2.1,46.0,3.1,'11111222,11111222,11111222' 
TCOON,ioos:station:TCOON:006:1,2009-09-01T03:00:00Z,27.8217,-97.2040,0.0,2.3,60.0,3.1,'11111222,11111222,11111222' 
TCOON,ioos:station:TCOON:006:1,2009-09-01T04:00:00Z,27.8217,-97.2040,0.0,2.7,81.0,3.4,'11111222,11111222,11111222' 
TCOON,ioos:station:TCOON:006:1,2009-09-01T05:00:00Z,27.8217,-97.2040,0.0,3.0,93.0,4.2,'11111222,11111222,11111222' 
TCOON,ioos:station:TCOON:006:1,2009-09-01T06:00:00Z,27.8217,-97.2040,0.0,2.6,96.0,4.8,'11111222,11111222,11111222' 
TCOON,ioos:station:TCOON:006:1,2009-09-01T07:00:00Z,27.8217,-97.2040,0.0,3.0,106.0,4.3,'11111222,11111222,11111222' 
TCOON,ioos:station:TCOON:006:1,2009-09-01T08:00:00Z,27.8217,-97.2040,0.0,2.5,105.0,3.4,'11111222,11111222,11111222' 
TCOON,ioos:station:TCOON:006:1,2009-09-01T09:00:00Z,27.8217,-97.2040,0.0,2.7,116.0,3.3,'11111222,11111222,11111222' 
TCOON,ioos:station:TCOON:006:1,2009-09-01T10:00:00Z,27.8217,-97.2040,0.0,1.8,101.0,2.8,'11111222,11111222,11111222' 
TCOON,ioos:station:TCOON:006:1,2009-09-01T11:00:00Z,27.8217,-97.2040,0.0,1.3,97.0,2.3,'11111222,11111222,11111222' 
TCOON,ioos:station:TCOON:006:1,2009-09-01T12:00:00Z,27.8217,-97.2040,0.0,1.1,92.0,1.3,'11111222,11111222,11111222' 
TCOON,ioos:station:TCOON:006:1,2009-09-01T13:00:00Z,27.8217,-97.2040,0.0,0.6,18.0,1.4,'11111222,11111222,11111222' 
TCOON,ioos:station:TCOON:006:1,2009-09-01T14:00:00Z,27.8217,-97.2040,0.0,1.7,17.0,3.1,'11111222,11111222,11111222' 
TCOON,ioos:station:TCOON:006:1,2009-09-01T15:00:00Z,27.8217,-97.2040,0.0,2.0,38.0,3.5,'11111222,11111222,11111222' 
TCOON,ioos:station:TCOON:006:1,2009-09-01T16:00:00Z,27.8217,-97.2040,0.0,2.8,40.0,4.3,'11111222,11111222,11111222' 
TCOON,ioos:station:TCOON:006:1,2009-09-01T17:00:00Z,27.8217,-97.2040,0.0,2.7,98.0,4.9,'11111222,11111222,11111222' 
TCOON,ioos:station:TCOON:006:1,2009-09-01T18:00:00Z,27.8217,-97.2040,0.0,4.4,70.0,5.7,'11111222,11111222,11111222' 
TCOON,ioos:station:TCOON:006:1,2009-09-01T19:00:00Z,27.8217,-97.2040,0.0,4.4,72.0,7.2,'11111222,11111222,11111222' 
TCOON,ioos:station:TCOON:006:1,2009-09-01T20:00:00Z,27.8217,-97.2040,0.0,4.3,64.0,5.7,'11111222,11111222,11111222' 
TCOON,ioos:station:TCOON:006:1,2009-09-01T21:00:00Z,27.8217,-97.2040,0.0,3.1,89.0,4.5,'11111222,11111222,11111222' 
TCOON,ioos:station:TCOON:006:1,2009-09-01T22:00:00Z,27.8217,-97.2040,0.0,2.1,98.0,3.2,'11111222,11111222,11111222' 
TCOON,ioos:station:TCOON:006:1,2009-09-01T23:00:00Z,27.8217,-97.2040,0.0,3.1,73.0,3.6,'11111222,11111222,11111222' 
TCOON,ioos:station:TCOON:006:1,2009-09-02T00:00:00Z,27.8217,-97.2040,0.0,2.7,73.0,3.6,'11111222,11111222,11111222' 
TCOON,ioos:station:TCOON:006:1,2009-09-02T01:00:00Z,27.8217,-97.2040,0.0,2.2,125.0,2.7,'11111222,11111222,11111222' 
TCOON,ioos:station:TCOON:006:1,2009-09-02T02:00:00Z,27.8217,-97.2040,0.0,2.2,88.0,3.1,'11111222,11111222,11111222' 
TCOON,ioos:station:TCOON:006:1,2009-09-02T03:00:00Z,27.8217,-97.2040,0.0,1.1,28.0,1.6,'11111222,11111222,11111222' 
TCOON,ioos:station:TCOON:006:1,2009-09-02T04:00:00Z,27.8217,-97.2040,0.0,1.7,89.0,3.2,'11111222,11111222,11111222' 
TCOON,ioos:station:TCOON:006:1,2009-09-02T05:00:00Z,27.8217,-97.2040,0.0,2.4,72.0,3.4,'11111222,11111222,11111222' 
TCOON,ioos:station:TCOON:006:1,2009-09-02T06:00:00Z,27.8217,-97.2040,0.0,0.7,4.0,1.6,'11111222,11111222,11111222' 
TCOON,ioos:station:TCOON:006:1,2009-09-02T07:00:00Z,27.8217,-97.2040,0.0,1.4,92.0,3.0,'11111222,11111222,11111222' 
TCOON,ioos:station:TCOON:006:1,2009-09-02T08:00:00Z,27.8217,-97.2040,0.0,2.7,86.0,3.4,'11111222,11111222,11111222' 
TCOON,ioos:station:TCOON:006:1,2009-09-02T09:00:00Z,27.8217,-97.2040,0.0,2.4,76.0,3.0,'11111222,11111222,11111222' 
TCOON,ioos:station:TCOON:006:1,2009-09-02T10:00:00Z,27.8217,-97.2040,0.0,3.1,72.0,4.1,'11111222,11111222,11111222' 
TCOON,ioos:station:TCOON:006:1,2009-09-02T11:00:00Z,27.8217,-97.2040,0.0,2.8,70.0,4.0,'11111222,11111222,11111222' 
TCOON,ioos:station:TCOON:006:1,2009-09-02T12:00:00Z,27.8217,-97.2040,0.0,3.0,76.0,4.1,'11111222,11111222,11111222' 
TCOON,ioos:station:TCOON:006:1,2009-09-02T13:00:00Z,27.8217,-97.2040,0.0,2.5,71.0,3.4,'11111222,11111222,11111222' 
TCOON,ioos:station:TCOON:006:1,2009-09-02T14:00:00Z,27.8217,-97.2040,0.0,2.1,99.0,3.8,'11111222,11111222,11111222' 
TCOON,ioos:station:TCOON:006:1,2009-09-02T15:00:00Z,27.8217,-97.2040,0.0,2.4,79.0,3.6,'11111222,11111222,11111222' 
TCOON,ioos:station:TCOON:006:1,2009-09-02T16:00:00Z,27.8217,-97.2040,0.0,2.2,117.0,2.7,'11111222,11111222,11111222' 
TCOON,ioos:station:TCOON:006:1,2009-09-02T17:00:00Z,27.8217,-97.2040,0.0,2.0,132.0,3.6,'11111222,11111222,11111222' 
TCOON,ioos:station:TCOON:006:1,2009-09-02T18:00:00Z,27.8217,-97.2040,0.0,2.6,130.0,3.9,'11111222,11111222,11111222' 
TCOON,ioos:station:TCOON:006:1,2009-09-02T19:00:00Z,27.8217,-97.2040,0.0,3.0,115.0,4.3,'11111222,11111222,11111222' 
TCOON,ioos:station:TCOON:006:1,2009-09-02T20:00:00Z,27.8217,-97.2040,0.0,4.6,133.0,5.4,'11111222,11111222,11111222' 
TCOON,ioos:station:TCOON:006:1,2009-09-02T21:00:00Z,27.8217,-97.2040,0.0,5.0,124.0,5.9,'11111222,11111222,11111222' 
TCOON,ioos:station:TCOON:006:1,2009-09-02T22:00:00Z,27.8217,-97.2040,0.0,5.5,124.0,6.2,'11111222,11111222,11111222' 
TCOON,ioos:station:TCOON:006:1,2009-09-02T23:00:00Z,27.8217,-97.2040,0.0,4.4,132.0,5.7,'11111222,11111222,11111222' 
TCOON,ioos:station:TCOON:006:1,2009-09-03T00:00:00Z,27.8217,-97.2040,0.0,5.2,132.0,6.7,'11111222,11111222,11111222' 
TCOON,ioos:station:TCOON:006:1,2009-09-03T01:00:00Z,27.8217,-97.2040,0.0,5.5,138.0,6.2,'11111222,11111222,11111222' 
TCOON,ioos:station:TCOON:006:1,2009-09-03T02:00:00Z,27.8217,-97.2040,0.0,5.1,146.0,6.2,'11111222,11111222,11111222' 
TCOON,ioos:station:TCOON:006:1,2009-09-03T03:00:00Z,27.8217,-97.2040,0.0,4.5,152.0,5.8,'11111222,11111222,11111222' 
TCOON,ioos:station:TCOON:006:1,2009-09-03T04:00:00Z,27.8217,-97.2040,0.0,4.9,163.0,6.5,'11111222,11111222,11111222' 
TCOON,ioos:station:TCOON:006:1,2009-09-03T05:00:00Z,27.8217,-97.2040,0.0,4.8,163.0,6.3,'11111222,11111222,11111222' 
TCOON,ioos:station:TCOON:006:1,2009-09-03T06:00:00Z,27.8217,-97.2040,0.0,4.7,160.0,6.0,'11111222,11111222,11111222' 
TCOON,ioos:station:TCOON:006:1,2009-09-03T07:00:00Z,27.8217,-97.2040,0.0,3.5,164.0,5.0,'11111222,11111222,11111222' 
TCOON,ioos:station:TCOON:006:1,2009-09-03T08:00:00Z,27.8217,-97.2040,0.0,3.3,175.0,4.2,'11111222,11111222,11111222' 
TCOON,ioos:station:TCOON:006:1,2009-09-03T09:00:00Z,27.8217,-97.2040,0.0,3.0,218.0,3.2,'11111222,11111222,11111222' 
TCOON,ioos:station:TCOON:006:1,2009-09-03T10:00:00Z,27.8217,-97.2040,0.0,3.1,228.0,3.5,'11111222,11111222,11111222' 
TCOON,ioos:station:TCOON:006:1,2009-09-03T11:00:00Z,27.8217,-97.2040,0.0,2.4,222.0,2.7,'11111222,11111222,11111222' 
TCOON,ioos:station:TCOON:006:1,2009-09-03T12:00:00Z,27.8217,-97.2040,0.0,2.5,222.0,2.9,'11111222,11111222,11111222' 
TCOON,ioos:station:TCOON:006:1,2009-09-03T13:00:00Z,27.8217,-97.2040,0.0,2.6,239.0,3.2,'11111222,11111222,11111222' 
TCOON,ioos:station:TCOON:006:1,2009-09-03T14:00:00Z,27.8217,-97.2040,0.0,3.4,234.0,4.2,'11111222,11111222,11111222' 
TCOON,ioos:station:TCOON:006:1,2009-09-03T15:00:00Z,27.8217,-97.2040,0.0,2.9,246.0,3.5,'11111222,11111222,11111222' 
TCOON,ioos:station:TCOON:006:1,2009-09-03T16:00:00Z,27.8217,-97.2040,0.0,1.7,236.0,3.0,'11111222,11111222,11111222' 
TCOON,ioos:station:TCOON:006:1,2009-09-03T17:00:00Z,27.8217,-97.2040,0.0,2.9,154.0,4.0,'11111222,11111222,11111222' 
TCOON,ioos:station:TCOON:006:1,2009-09-03T18:00:00Z,27.8217,-97.2040,0.0,3.3,119.0,4.9,'11111222,11111222,11111222' 
TCOON,ioos:station:TCOON:006:1,2009-09-03T19:00:00Z,27.8217,-97.2040,0.0,4.7,130.0,5.6,'11111222,11111222,11111222' 
TCOON,ioos:station:TCOON:006:1,2009-09-03T20:00:00Z,27.8217,-97.2040,0.0,4.2,114.0,5.8,'11111222,11111222,11111222' 
TCOON,ioos:station:TCOON:006:1,2009-09-03T21:00:00Z,27.8217,-97.2040,0.0,5.0,118.0,6.5,'11111222,11111222,11111222' 
TCOON,ioos:station:TCOON:006:1,2009-09-03T22:00:00Z,27.8217,-97.2040,0.0,4.0,112.0,6.0,'11111222,11111222,11111222' 
TCOON,ioos:station:TCOON:006:1,2009-09-03T23:00:00Z,27.8217,-97.2040,0.0,5.6,120.0,6.5,'11111222,11111222,11111222' 
TCOON,ioos:station:TCOON:006:1,2009-09-04T00:00:00Z,27.8217,-97.2040,0.0,5.6,115.0,8.1,'11111222,11111222,11111222' 
TCOON,ioos:station:TCOON:006:1,2009-09-04T01:00:00Z,27.8217,-97.2040,0.0,6.3,129.0,7.9,'11111222,11111222,11111222' 
TCOON,ioos:station:TCOON:006:1,2009-09-04T02:00:00Z,27.8217,-97.2040,0.0,6.3,135.0,7.6,'11111222,11111222,11111222' 
TCOON,ioos:station:TCOON:006:1,2009-09-04T03:00:00Z,27.8217,-97.2040,0.0,5.6,128.0,7.1,'11111222,11111222,11111222' 
TCOON,ioos:station:TCOON:006:1,2009-09-04T04:00:00Z,27.8217,-97.2040,0.0,4.5,147.0,5.6,'11111222,11111222,11111222' 
TCOON,ioos:station:TCOON:006:1,2009-09-04T05:00:00Z,27.8217,-97.2040,0.0,6.0,158.0,7.0,'11111222,11111222,11111222' 
TCOON,ioos:station:TCOON:006:1,2009-09-04T06:00:00Z,27.8217,-97.2040,0.0,5.4,179.0,7.3,'11111222,11111222,11111222' 
TCOON,ioos:station:TCOON:006:1,2009-09-04T07:00:00Z,27.8217,-97.2040,0.0,5.4,166.0,6.4,'11111222,11111222,11111222' 
TCOON,ioos:station:TCOON:006:1,2009-09-04T08:00:00Z,27.8217,-97.2040,0.0,4.4,192.0,5.3,'11111222,11111222,11111222' 
TCOON,ioos:station:TCOON:006:1,2009-09-04T09:00:00Z,27.8217,-97.2040,0.0,1.8,210.0,2.0,'11111222,11111222,11111222' 
TCOON,ioos:station:TCOON:006:1,2009-09-04T10:00:00Z,27.8217,-97.2040,0.0,2.7,233.0,3.6,'11111222,11111222,11111222' 
TCOON,ioos:station:TCOON:006:1,2009-09-04T11:00:00Z,27.8217,-97.2040,0.0,3.2,238.0,3.7,'11111222,11111222,11111222' 
TCOON,ioos:station:TCOON:006:1,2009-09-04T12:00:00Z,27.8217,-97.2040,0.0,1.3,293.0,1.9,'11111222,11111222,11111222' 
TCOON,ioos:station:TCOON:006:1,2009-09-04T13:00:00Z,27.8217,-97.2040,0.0,1.2,342.0,2.4,'11111222,11111222,11111222' 
TCOON,ioos:station:TCOON:006:1,2009-09-04T14:00:00Z,27.8217,-97.2040,0.0,1.5,341.0,2.4,'11111222,11111222,11111222' 
TCOON,ioos:station:TCOON:006:1,2009-09-04T15:00:00Z,27.8217,-97.2040,0.0,2.0,66.0,3.5,'11111222,11111222,11111222' 
TCOON,ioos:station:TCOON:006:1,2009-09-04T16:00:00Z,27.8217,-97.2040,0.0,1.8,52.0,3.8,'11111222,11111222,11111222' 
TCOON,ioos:station:TCOON:006:1,2009-09-04T17:00:00Z,27.8217,-97.2040,0.0,3.2,81.0,5.5,'11111222,11111222,11111222' 
TCOON,ioos:station:TCOON:006:1,2009-09-04T18:00:00Z,27.8217,-97.2040,0.0,3.1,111.0,5.9,'11111222,11111222,11111222' 
TCOON,ioos:station:TCOON:006:1,2009-09-04T19:00:00Z,27.8217,-97.2040,0.0,3.7,114.0,5.2,'11111222,11111222,11111222' 
TCOON,ioos:station:TCOON:006:1,2009-09-04T20:00:00Z,27.8217,-97.2040,0.0,4.1,95.0,6.9,'11111222,11111222,11111222' 
TCOON,ioos:station:TCOON:006:1,2009-09-04T21:00:00Z,27.8217,-97.2040,0.0,4.7,99.0,7.3,'11111222,11111222,11111222' 
TCOON,ioos:station:TCOON:006:1,2009-09-04T22:00:00Z,27.8217,-97.2040,0.0,3.9,91.0,5.7,'11111222,11111222,11111222' 
TCOON,ioos:station:TCOON:006:1,2009-09-04T23:00:00Z,27.8217,-97.2040,0.0,3.6,93.0,5.0,'11111222,11111222,11111222' 
TCOON,ioos:station:TCOON:006:1,2009-09-05T00:00:00Z,27.8217,-97.2040,0.0,2.4,88.0,3.5,'11111222,11111222,11111222' 
TCOON,ioos:station:TCOON:006:1,2009-09-05T01:00:00Z,27.8217,-97.2040,0.0,3.2,92.0,4.5,'11111222,11111222,11111222' 
TCOON,ioos:station:TCOON:006:1,2009-09-05T02:00:00Z,27.8217,-97.2040,0.0,3.0,93.0,4.4,'11111222,11111222,11111222' 
TCOON,ioos:station:TCOON:006:1,2009-09-05T03:00:00Z,27.8217,-97.2040,0.0,3.7,93.0,4.1,'11111222,11111222,11111222' 
TCOON,ioos:station:TCOON:006:1,2009-09-05T04:00:00Z,27.8217,-97.2040,0.0,3.2,99.0,4.7,'11111222,11111222,11111222' 
TCOON,ioos:station:TCOON:006:1,2009-09-05T05:00:00Z,27.8217,-97.2040,0.0,2.6,101.0,4.6,'11111222,11111222,11111222' 
TCOON,ioos:station:TCOON:006:1,2009-09-05T06:00:00Z,27.8217,-97.2040,0.0,2.9,119.0,3.8,'11111222,11111222,11111222' 
TCOON,ioos:station:TCOON:006:1,2009-09-05T07:00:00Z,27.8217,-97.2040,0.0,3.3,139.0,4.1,'11111222,11111222,11111222' 
TCOON,ioos:station:TCOON:006:1,2009-09-05T08:00:00Z,27.8217,-97.2040,0.0,1.7,144.0,2.9,'11111222,11111222,11111222' 
TCOON,ioos:station:TCOON:006:1,2009-09-05T09:00:00Z,27.8217,-97.2040,0.0,1.0,138.0,2.2,'11111222,11111222,11111222' 
TCOON,ioos:station:TCOON:006:1,2009-09-05T10:00:00Z,27.8217,-97.2040,0.0,1.6,348.0,2.4,'11111222,11111222,11111222' 
TCOON,ioos:station:TCOON:006:1,2009-09-05T11:00:00Z,27.8217,-97.2040,0.0,2.2,322.0,3.3,'11111222,11111222,11111222' 
TCOON,ioos:station:TCOON:006:1,2009-09-05T12:00:00Z,27.8217,-97.2040,0.0,2.6,338.0,3.7,'11111222,11111222,11111222' 
TCOON,ioos:station:TCOON:006:1,2009-09-05T13:00:00Z,27.8217,-97.2040,0.0,1.7,355.0,4.2,'11111222,11111222,11111222' 
TCOON,ioos:station:TCOON:006:1,2009-09-05T14:00:00Z,27.8217,-97.2040,0.0,2.2,34.0,4.3,'11111222,11111222,11111222' 
TCOON,ioos:station:TCOON:006:1,2009-09-05T15:00:00Z,27.8217,-97.2040,0.0,3.0,41.0,4.4,'11111222,11111222,11111222' 
TCOON,ioos:station:TCOON:006:1,2009-09-05T16:00:00Z,27.8217,-97.2040,0.0,3.4,39.0,4.3,'11111222,11111222,11111222' 
TCOON,ioos:station:TCOON:006:1,2009-09-05T17:00:00Z,27.8217,-97.2040,0.0,4.1,57.0,4.9,'11111222,11111222,11111222' 
TCOON,ioos:station:TCOON:006:1,2009-09-05T18:00:00Z,27.8217,-97.2040,0.0,4.8,68.0,6.3,'11111222,11111222,11111222' 
TCOON,ioos:station:TCOON:006:1,2009-09-05T19:00:00Z,27.8217,-97.2040,0.0,4.5,68.0,6.0,'11111222,11111222,11111222' 
TCOON,ioos:station:TCOON:006:1,2009-09-05T20:00:00Z,27.8217,-97.2040,0.0,4.4,83.0,5.3,'11111222,11111222,11111222' 
TCOON,ioos:station:TCOON:006:1,2009-09-05T21:00:00Z,27.8217,-97.2040,0.0,4.2,91.0,5.7,'11111222,11111222,11111222' 
TCOON,ioos:station:TCOON:006:1,2009-09-05T22:00:00Z,27.8217,-97.2040,0.0,4.5,83.0,6.4,'11111222,11111222,11111222' 
TCOON,ioos:station:TCOON:006:1,2009-09-05T23:00:00Z,27.8217,-97.2040,0.0,3.6,94.0,5.6,'11111222,11111222,11111222' 
TCOON,ioos:station:TCOON:006:1,2009-09-06T00:00:00Z,27.8217,-97.2040,0.0,3.4,88.0,5.2,'11111222,11111222,11111222' 
TCOON,ioos:station:TCOON:006:1,2009-09-06T01:00:00Z,27.8217,-97.2040,0.0,3.5,72.0,4.5,'11111222,11111222,11111222' 
TCOON,ioos:station:TCOON:006:1,2009-09-06T02:00:00Z,27.8217,-97.2040,0.0,1.5,88.0,2.7,'11111222,11111222,11111222' 
TCOON,ioos:station:TCOON:006:1,2009-09-06T03:00:00Z,27.8217,-97.2040,0.0,2.2,57.0,3.7,'11111222,11111222,11111222' 
TCOON,ioos:station:TCOON:006:1,2009-09-06T04:00:00Z,27.8217,-97.2040,0.0,2.0,345.0,2.2,'11111222,11111222,11111222' 
TCOON,ioos:station:TCOON:006:1,2009-09-06T05:00:00Z,27.8217,-97.2040,0.0,1.2,359.0,2.8,'11111222,11111222,11111222' 
TCOON,ioos:station:TCOON:006:1,2009-09-06T06:00:00Z,27.8217,-97.2040,0.0,2.3,342.0,3.1,'11111222,11111222,11111222' 
TCOON,ioos:station:TCOON:006:1,2009-09-06T07:00:00Z,27.8217,-97.2040,0.0,2.6,343.0,3.6,'11111222,11111222,11111222' 
TCOON,ioos:station:TCOON:006:1,2009-09-06T08:00:00Z,27.8217,-97.2040,0.0,2.6,344.0,3.7,'11111222,11111222,11111222' 
TCOON,ioos:station:TCOON:006:1,2009-09-06T09:00:00Z,27.8217,-97.2040,0.0,1.6,357.0,3.1,'11111222,11111222,11111222' 
TCOON,ioos:station:TCOON:006:1,2009-09-06T10:00:00Z,27.8217,-97.2040,0.0,0.7,15.0,1.9,'11111222,11111222,11111222' 
TCOON,ioos:station:TCOON:006:1,2009-09-06T11:00:00Z,27.8217,-97.2040,0.0,0.8,12.0,2.5,'11111222,11111222,11111222' 
TCOON,ioos:station:TCOON:006:1,2009-09-06T12:00:00Z,27.8217,-97.2040,0.0,0.7,15.0,2.8,'11111222,11111222,11111222' 
TCOON,ioos:station:TCOON:006:1,2009-09-06T13:00:00Z,27.8217,-97.2040,0.0,2.9,28.0,4.6,'11111222,11111222,11111222' 
TCOON,ioos:station:TCOON:006:1,2009-09-06T14:00:00Z,27.8217,-97.2040,0.0,3.2,39.0,4.7,'11111222,11111222,11111222' 
TCOON,ioos:station:TCOON:006:1,2009-09-06T15:00:00Z,27.8217,-97.2040,0.0,3.2,59.0,5.3,'11111222,11111222,11111222' 
TCOON,ioos:station:TCOON:006:1,2009-09-06T16:00:00Z,27.8217,-97.2040,0.0,4.6,67.0,6.2,'11111222,11111222,11111222' 
TCOON,ioos:station:TCOON:006:1,2009-09-06T17:00:00Z,27.8217,-97.2040,0.0,4.3,70.0,5.5,'11111222,11111222,11111222' 
TCOON,ioos:station:TCOON:006:1,2009-09-06T18:00:00Z,27.8217,-97.2040,0.0,4.0,74.0,5.6,'11111222,11111222,11111222' 
TCOON,ioos:station:TCOON:006:1,2009-09-06T19:00:00Z,27.8217,-97.2040,0.0,3.9,98.0,5.4,'11111222,11111222,11111222' 
TCOON,ioos:station:TCOON:006:1,2009-09-06T20:00:00Z,27.8217,-97.2040,0.0,5.0,109.0,6.7,'11111222,11111222,11111222' 
TCOON,ioos:station:TCOON:006:1,2009-09-06T21:00:00Z,27.8217,-97.2040,0.0,4.4,97.0,6.6,'11111222,11111222,11111222' 
TCOON,ioos:station:TCOON:006:1,2009-09-06T22:00:00Z,27.8217,-97.2040,0.0,4.2,111.0,6.3,'11111222,11111222,11111222' 
TCOON,ioos:station:TCOON:006:1,2009-09-06T23:00:00Z,27.8217,-97.2040,0.0,2.8,103.0,5.4,'11111222,11111222,11111222' 
TCOON,ioos:station:TCOON:006:1,2009-09-07T00:00:00Z,27.8217,-97.2040,0.0,3.4,98.0,4.9,'11111222,11111222,11111222' 
TCOON,ioos:station:TCOON:006:1,2009-09-07T01:00:00Z,27.8217,-97.2040,0.0,3.2,90.0,5.0,'11111222,11111222,11111222' 
TCOON,ioos:station:TCOON:006:1,2009-09-07T02:00:00Z,27.8217,-97.2040,0.0,4.2,105.0,6.0,'11111222,11111222,11111222' 
TCOON,ioos:station:TCOON:006:1,2009-09-07T03:00:00Z,27.8217,-97.2040,0.0,2.9,103.0,3.3,'11111222,11111222,11111222' 
TCOON,ioos:station:TCOON:006:1,2009-09-07T04:00:00Z,27.8217,-97.2040,0.0,4.8,124.0,5.4,'11111222,11111222,11111222' 
TCOON,ioos:station:TCOON:006:1,2009-09-07T05:00:00Z,27.8217,-97.2040,0.0,3.4,120.0,4.1,'11111222,11111222,11111222' 
TCOON,ioos:station:TCOON:006:1,2009-09-07T06:00:00Z,27.8217,-97.2040,0.0,3.1,149.0,4.0,'11111222,11111222,11111222' 
TCOON,ioos:station:TCOON:006:1,2009-09-07T07:00:00Z,27.8217,-97.2040,0.0,3.1,159.0,3.6,'11111222,11111222,11111222' 
TCOON,ioos:station:TCOON:006:1,2009-09-07T08:00:00Z,27.8217,-97.2040,0.0,2.5,158.0,3.2,'11111222,11111222,11111222' 
TCOON,ioos:station:TCOON:006:1,2009-09-07T09:00:00Z,27.8217,-97.2040,0.0,1.2,154.0,1.7,'11111222,11111222,11111222' 
TCOON,ioos:station:TCOON:006:1,2009-09-07T10:00:00Z,27.8217,-97.2040,0.0,1.5,145.0,1.8,'11111222,11111222,11111222' 
TCOON,ioos:station:TCOON:006:1,2009-09-07T11:00:00Z,27.8217,-97.2040,0.0,1.8,342.0,2.3,'11111222,11111222,11111222' 
TCOON,ioos:station:TCOON:006:1,2009-09-07T12:00:00Z,27.8217,-97.2040,0.0,0.8,20.0,1.2,'11111222,11111222,11111222' 
TCOON,ioos:station:TCOON:006:1,2009-09-07T13:00:00Z,27.8217,-97.2040,0.0,0.6,8.0,1.8,'11111222,11111222,11111222' 
TCOON,ioos:station:TCOON:006:1,2009-09-07T14:00:00Z,27.8217,-97.2040,0.0,2.4,79.0,2.8,'11111222,11111222,11111222' 
TCOON,ioos:station:TCOON:006:1,2009-09-07T15:00:00Z,27.8217,-97.2040,0.0,3.7,54.0,5.7,'11111222,11111222,11111222' 
TCOON,ioos:station:TCOON:006:1,2009-09-07T16:00:00Z,27.8217,-97.2040,0.0,2.4,82.0,3.3,'11111222,11111222,11111222' 
TCOON,ioos:station:TCOON:006:1,2009-09-07T17:00:00Z,27.8217,-97.2040,0.0,3.0,54.0,4.8,'11111222,11111222,11111222' 
TCOON,ioos:station:TCOON:006:1,2009-09-07T18:00:00Z,27.8217,-97.2040,0.0,3.6,95.0,6.1,'11111222,11111222,11111222' 
TCOON,ioos:station:TCOON:006:1,2009-09-07T19:00:00Z,27.8217,-97.2040,0.0,5.0,77.0,6.7,'11111222,11111222,11111222' 
TCOON,ioos:station:TCOON:006:1,2009-09-07T20:00:00Z,27.8217,-97.2040,0.0,4.2,87.0,6.4,'11111222,11111222,11111222' 
TCOON,ioos:station:TCOON:006:1,2009-09-07T21:00:00Z,27.8217,-97.2040,0.0,5.5,83.0,8.0,'11111222,11111222,11111222' 
TCOON,ioos:station:TCOON:006:1,2009-09-07T22:00:00Z,27.8217,-97.2040,0.0,5.0,92.0,8.2,'11111222,11111222,11111222' 
TCOON,ioos:station:TCOON:006:1,2009-09-07T23:00:00Z,27.8217,-97.2040,0.0,4.9,94.0,7.1,'11111222,11111222,11111222' 
TCOON,ioos:station:TCOON:006:1,2009-09-08T00:00:00Z,27.8217,-97.2040,0.0,4.6,91.0,7.5,'11111222,11111222,11111222' 
TCOON,ioos:station:TCOON:006:1,2009-09-08T01:00:00Z,27.8217,-97.2040,0.0,3.4,108.0,6.2,'11111222,11111222,11111222' 
TCOON,ioos:station:TCOON:006:1,2009-09-08T02:00:00Z,27.8217,-97.2040,0.0,4.3,116.0,6.0,'11111222,11111222,11111222' 
TCOON,ioos:station:TCOON:006:1,2009-09-08T03:00:00Z,27.8217,-97.2040,0.0,2.8,117.0,4.6,'11111222,11111222,11111222' 
TCOON,ioos:station:TCOON:006:1,2009-09-08T04:00:00Z,27.8217,-97.2040,0.0,4.2,130.0,5.7,'11111222,11111222,11111222' 
TCOON,ioos:station:TCOON:006:1,2009-09-08T05:00:00Z,27.8217,-97.2040,0.0,3.2,129.0,4.1,'11111222,11111222,11111222' 
TCOON,ioos:station:TCOON:006:1,2009-09-08T06:00:00Z,27.8217,-97.2040,0.0,2.8,144.0,3.8,'11111222,11111222,11111222' 
TCOON,ioos:station:TCOON:006:1,2009-09-08T07:00:00Z,27.8217,-97.2040,0.0,3.2,120.0,4.8,'11111222,11111222,11111222' 
TCOON,ioos:station:TCOON:006:1,2009-09-08T08:00:00Z,27.8217,-97.2040,0.0,3.5,100.0,4.6,'11111222,11111222,11111222' 
TCOON,ioos:station:TCOON:006:1,2009-09-08T09:00:00Z,27.8217,-97.2040,0.0,4.2,129.0,5.9,'11111222,11111222,11111222' 
TCOON,ioos:station:TCOON:006:1,2009-09-08T10:00:00Z,27.8217,-97.2040,0.0,3.0,163.0,4.3,'11111222,11111222,11111222' 
TCOON,ioos:station:TCOON:006:1,2009-09-08T11:00:00Z,27.8217,-97.2040,0.0,5.3,184.0,7.3,'11111222,11111222,11111222' 
TCOON,ioos:station:TCOON:006:1,2009-09-08T12:00:00Z,27.8217,-97.2040,0.0,0.6,161.0,1.4,'11111222,11111222,11111222' 
TCOON,ioos:station:TCOON:006:1,2009-09-08T13:00:00Z,27.8217,-97.2040,0.0,0.5,46.0,0.8,'11111222,11111222,11111222' 
TCOON,ioos:station:TCOON:006:1,2009-09-08T14:00:00Z,27.8217,-97.2040,0.0,1.7,127.0,2.1,'11111222,11111222,11111222' 
TCOON,ioos:station:TCOON:006:1,2009-09-08T15:00:00Z,27.8217,-97.2040,0.0,1.5,135.0,2.5,'11111222,11111222,11111222' 
TCOON,ioos:station:TCOON:006:1,2009-09-08T16:00:00Z,27.8217,-97.2040,0.0,1.5,106.0,2.8,'11111222,11111222,11111222' 
TCOON,ioos:station:TCOON:006:1,2009-09-08T17:00:00Z,27.8217,-97.2040,0.0,3.5,152.0,4.7,'11111222,11111222,11111222' 
TCOON,ioos:station:TCOON:006:1,2009-09-08T18:00:00Z,27.8217,-97.2040,0.0,3.8,115.0,5.4,'11111222,11111222,11111222' 
TCOON,ioos:station:TCOON:006:1,2009-09-08T20:00:00Z,27.8217,-97.2040,0.0,6.2,120.0,,'1111122,1111122,1111122' 
TCOON,ioos:station:TCOON:006:1,2009-09-08T21:00:00Z,27.8217,-97.2040,0.0,7.2,120.0,,'1111122,1111122,1111122' 
TCOON,ioos:station:TCOON:006:1,2009-09-08T22:00:00Z,27.8217,-97.2040,0.0,5.1,110.0,,'1111122,1111122,1111122' 
TCOON,ioos:station:TCOON:006:1,2009-09-08T23:00:00Z,27.8217,-97.2040,0.0,5.9,109.0,8.6,'11111222,11111222,11111222' 
TCOON,ioos:station:TCOON:006:1,2009-09-09T00:00:00Z,27.8217,-97.2040,0.0,5.2,109.0,6.8,'11111222,11111222,11111222' 
TCOON,ioos:station:TCOON:006:1,2009-09-09T01:00:00Z,27.8217,-97.2040,0.0,5.7,120.0,,'1111122,1111122,1111122' 
TCOON,ioos:station:TCOON:006:1,2009-09-09T02:00:00Z,27.8217,-97.2040,0.0,5.1,120.0,,'1111122,1111122,1111122' 
TCOON,ioos:station:TCOON:006:1,2009-09-09T03:00:00Z,27.8217,-97.2040,0.0,5.1,120.0,,'1111122,1111122,1111122' 
TCOON,ioos:station:TCOON:006:1,2009-09-09T04:00:00Z,27.8217,-97.2040,0.0,6.2,140.0,,'1111122,1111122,1111122' 
TCOON,ioos:station:TCOON:006:1,2009-09-09T05:00:00Z,27.8217,-97.2040,0.0,5.1,160.0,,'1111122,1111122,1111122' 
TCOON,ioos:station:TCOON:006:1,2009-09-09T06:00:00Z,27.8217,-97.2040,0.0,4.6,160.0,,'1111122,1111122,1111122' 
TCOON,ioos:station:TCOON:006:1,2009-09-09T07:00:00Z,27.8217,-97.2040,0.0,5.1,160.0,,'1111122,1111122,1111122' 
TCOON,ioos:station:TCOON:006:1,2009-09-09T08:00:00Z,27.8217,-97.2040,0.0,5.1,170.0,,'1111122,1111122,1111122' 
TCOON,ioos:station:TCOON:006:1,2009-09-09T09:00:00Z,27.8217,-97.2040,0.0,5.1,180.0,,'1111122,1111122,1111122' 
TCOON,ioos:station:TCOON:006:1,2009-09-09T10:00:00Z,27.8217,-97.2040,0.0,3.6,180.0,,'1111122,1111122,1111122' 
TCOON,ioos:station:TCOON:006:1,2009-09-09T11:00:00Z,27.8217,-97.2040,0.0,2.6,150.0,,'1111122,1111122,1111122' 
TCOON,ioos:station:TCOON:006:1,2009-09-09T12:00:00Z,27.8217,-97.2040,0.0,2.6,110.0,,'1111122,1111122,1111122' 
TCOON,ioos:station:TCOON:006:1,2009-09-09T13:00:00Z,27.8217,-97.2040,0.0,2.1,20.0,,'1111122,1111122,1111122' 
TCOON,ioos:station:TCOON:006:1,2009-09-09T14:00:00Z,27.8217,-97.2040,0.0,1.0,20.0,,'1111122,1111122,1111122' 